Location: Oshawa
(43.9000°N, 78.8670°W)
Time: 16:52:30
(UTC-04:00)

Daily predictions for brighter satellites

Satellite Brightness Start Highest point End
(mag) Time Altitude Azimuth Time Altitude Azimuth Time Altitude Azimuth
Cosmos 1943 Rocket 4.0 21:25:58 10° ESE 21:27:20 11° E 21:28:42 10° E
COSMOS 2487 2.7 21:25:34 10° NNW 21:29:07 72° WSW 21:32:39 10° SSE
H-2A R/B 3.5 21:26:03 10° ESE 21:30:16 24° ENE 21:34:27 10° NNE
Helios 1A 3.0 21:28:23 10° SSE 21:32:33 87° WSW 21:36:47 10° NNW
Cosmos 2369 Rocket 3.3 21:28:34 10° SSE 21:32:56 24° E 21:37:20 10° NE
USA 186 4.0 21:32:13 10° SW 21:34:11 19° W 21:36:14 10° NW
Cosmos 1400 Rocket 4.2 21:30:25 10° SSW 21:34:19 43° WNW 21:38:12 10° N
Tsikada Rocket 4.0 21:30:24 10° S 21:36:38 83° E 21:42:51 10° N
CZ-4B DEB 2.5 21:34:09 10° SSE 21:37:04 77° ENE 21:40:01 10° N
CENTAUR R/B 3.8 21:34:49 10° SE 21:38:31 17° ESE 21:42:28 10° ENE
Cosmos 1606 4.4 21:38:00 10° NNE 21:40:42 18° ENE 21:43:11 11° ESE
Cosmos 1703 Rocket 4.1 21:36:50 10° N 21:41:03 41° ENE 21:45:08 10° SSE
Cosmos 1470 Rocket 4.0 21:38:59 10° SSW 21:43:27 69° W 21:47:56 10° N
Okean 1-7 4.0 21:41:34 10° N 21:45:32 32° ENE 21:49:00 12° SE
Cosmos 1782 4.1 21:43:25 10° NNE 21:46:46 25° ENE 21:49:31 13° SE
Cosmos 2298 Rocket 4.0 21:41:46 10° SSW 21:47:02 77° ESE 21:52:21 10° NNE
Cosmos 2150 Rocket 4.0 21:42:37 10° S 21:47:58 70° ESE 21:53:16 10° NNE
Meteor 1-26 Rocket 4.3 21:42:53 10° N 21:48:31 89° ENE 21:54:14 10° S
Meteor 1-29 3.0 21:48:26 10° NNE 21:51:58 89° W 21:55:27 10° SSW
Meteor 2-3 Rocket 3.7 21:46:41 10° S 21:52:23 71° E 21:58:03 10° NNE
Shenzhou-11 Module 2.1 21:50:12 10° W 21:53:15 58° S 21:55:34 16° ESE
Cosmos 1937 Rocket 3.4 21:48:28 10° SSW 21:53:36 81° ESE 21:58:46 10° NNE
COSMOS 2455 3.3 21:49:53 10° S 21:55:23 39° ESE 22:00:55 10° NE
OE (NEXTSAT) 4.4 21:53:45 10° WNW 21:57:18 69° SSW 21:59:56 17° ESE
Cosmos 2221 Rocket 4.1 21:53:11 10° N 21:57:25 43° ENE 22:00:49 15° SE
Cosmos 1634 Rocket 4.0 21:55:15 10° N 22:01:33 75° E 22:07:51 10° SSE
Cosmos 1869 Rocket 3.9 21:57:38 10° SSE 22:01:46 46° E 22:05:56 10° NNE
Cosmos 1315 Rocket 4.2 21:58:01 10° SW 22:01:49 41° WNW 22:05:41 10° N
ATLAS 3B R/B 4.2 22:00:22 10° WSW 22:07:22 44° NW 22:14:06 10° NNE
ATLAS 5 CENTAUR R/B 3.5 22:02:36 10° NNW 22:07:52 33° NE 22:13:15 11° ESE
Cosmos 2344 4.3 22:06:45 10° SSE 22:13:08 29° ESE 22:19:56 10° NE
GEOS 3 Rocket 4.0 22:10:18 16° ESE 22:14:18 56° NE 22:19:27 10° NNW
Cosmos 1900 4.4 22:10:51 10° NNW 22:16:04 87° NE 22:19:45 19° SSE
SPOT 5 3.1 22:11:55 15° SSE 22:16:20 72° ENE 22:21:39 10° N
Cosmos 2082 Rocket 4.2 22:13:26 10° NW 22:17:44 23° W 22:22:01 10° SSW
Cosmos 158 Rocket 4.5 22:16:02 10° N 22:20:43 41° ENE 22:23:35 21° ESE
Terra 3.0 22:18:43 18° ESE 22:21:20 29° ENE 22:25:25 10° N
YAOGAN 11 4.2 22:18:42 18° SSE 22:22:03 76° ENE 22:26:36 10° N
MetOp-B 4.3 22:18:02 12° S 22:23:00 74° WSW 22:28:23 10° NNW
ARGOS 3.2 22:21:03 15° SSE 22:25:38 84° WSW 22:31:02 10° NNW
SPOT 1/Viking Rocket 3.6 22:24:11 20° SSE 22:27:48 68° ENE 22:32:59 10° N
ERS-1 Rocket 3.7 22:23:21 10° S 22:28:14 51° W 22:33:10 10° NNW
Aureole 3 2.6 22:31:07 19° S 22:33:16 82° W 22:36:15 10° N
Tiangong 2 1.5 22:32:35 10° W 22:35:41 46° SSW 22:36:22 39° SSE
Cosmos 1825 2.0 22:37:42 25° S 22:39:49 75° E 22:43:36 10° NNE
SL-08 RB Rocket 3.9 22:37:01 20° S 22:40:16 73° WSW 22:44:57 10° NNW
Cosmos 2279 Rocket 4.0 22:33:59 10° N 22:40:18 87° E 22:44:52 20° S
GPS 2-04 Rocket1 4.2 22:38:26 10° SW 22:39:58 17° SSW 22:39:58 17° SSW
NOSS 3-2 (A) 4.3 22:35:37 10° WSW 22:41:33 54° NW 22:48:08 10° NNE
Cosmos 2084 3.1 22:37:48 10° NW 22:41:38 86° NE 22:43:14 35° SE
Cosmos 468 4.5 22:36:29 10° NNW 22:41:48 89° ENE 22:44:51 26° SSE
Lacrosse 5 rocket 1.5 22:44:20 36° ESE 22:44:20 36° ESE 22:47:28 10° ENE
Milstar 3 4.1 22:39:28 10° SW 22:46:04 21° S 22:46:57 21° SSE
Cosmos 1269 Rocket 4.1 22:42:04 10° NNW 22:47:21 66° ENE 22:50:00 29° SE
H-2A R/B 3.1 22:46:34 25° ESE 22:47:51 30° ENE 22:51:27 10° N
USA 215 4.1 22:45:39 19° S 22:49:55 39° SW 22:55:59 10° WNW
Cosmos 2263 4.1 22:49:09 10° SSW 22:54:54 77° ESE 23:00:40 10° NNE
Cosmos 1408 3.0 22:53:50 21° SSW 22:56:06 62° W 22:59:49 10° N
NOSS 3-2 (C) 4.3 22:53:39 10° WSW 22:59:36 54° NW 23:06:11 10° NNE
Cosmos 1125 Rocket 3.4 22:57:28 14° SSW 23:01:58 88° ESE 23:07:14 10° NNE
Meteor 1-27 Rocket 3.7 22:58:21 10° N 23:04:12 88° E 23:07:07 31° S
Lacrosse 4 Rocket 1.9 22:59:52 10° NNW 23:04:19 54° ENE 23:05:48 36° ESE
H-2A R/B 2.7 23:05:54 22° SSW 23:09:19 53° W 23:14:35 10° NNW
Cosmos 1943 Rocket 2.1 23:05:38 16° SSW 23:10:07 81° ESE 23:15:43 10° NNE
Cosmos 372 Rocket 3.9 23:06:47 21° SSW 23:10:19 87° ESE 23:15:28 10° NNE
Cosmos 1833 4.3 23:05:15 10° NNW 23:11:04 74° ENE 23:13:32 36° SE
deb Kosmos-1763 4.3 23:12:10 10° NNW 23:15:54 64° WSW 23:16:35 51° SSW
Cosmos 2369 Rocket 2.9 23:11:01 10° SW 23:16:33 54° WNW 23:22:08 10° NNE
Cosmos 1606 4.2 23:13:12 10° NNW 23:16:33 30° W 23:18:16 21° SW
Cosmos 1340 3.4 23:13:00 10° NNW 23:16:40 48° W 23:17:47 35° SW
SL-19 R/B 4.5 23:12:01 10° NNE 23:17:54 62° ESE 23:20:40 33° S
deb Chang Zheng 4 3.9 23:13:41 10° NNE 23:17:57 45° E 23:18:26 44° ESE
Sich 1 Rocket 4.2 23:22:05 39° ESE 23:22:22 39° E 23:26:31 10° NNE
DNEPR-1 R/B 3.7 23:17:32 10° SSW 23:22:46 89° WNW 23:27:16 10° NE
CENTAUR R/B 2.5 23:21:59 10° SW 23:28:01 86° NW 23:35:01 10° NE
ARGOS Delta rocket 4.1 23:24:34 10° NNE 23:28:56 42° E 23:29:09 42° ESE
Okean 3 3.5 23:26:13 10° N 23:30:21 58° E 23:30:46 55° ESE
Cosmos 2297 Rocket 4.4 23:29:19 10° N 23:32:42 16° NE 23:36:04 10° E
Cosmos 1782 Rocket 4.5 23:34:24 33° E 23:34:24 33° E 23:38:15 10° NNE
Cosmos 1733 Rocket 3.5 23:34:59 35° SW 23:36:32 57° W 23:40:49 10° N
IGS 5A 4.0 23:36:37 41° SW 23:37:31 49° W 23:41:34 10° NNW
Cosmos 2026 Rocket 4.2 23:38:22 41° SE 23:40:07 53° E 23:46:08 10° NNE
COSMOS 2455 4.1 23:35:41 10° WSW 23:41:18 40° NW 23:46:57 10° NNE
Meteor 1-14 Rocket 4.5 23:40:13 44° SE 23:41:44 56° E 23:47:27 10° NNE
ISS -1.0 23:48:26 11° NE 23:48:26 11° NE 23:48:34 10° NE
Cosmos 1437 3.4 23:43:12 10° NNW 23:45:47 54° NNW 23:45:47 54° NNW
Cosmos 494 Rocket 3.9 23:41:47 10° NNW 23:47:03 80° ENE 23:48:12 55° SE
ALOS 2 4.1 23:46:29 23° E 23:47:06 24° ENE 23:50:37 10° NNE
BREEZE-M DEB 4.5 23:39:15 10° W 23:48:28 47° NNW 23:51:33 10° ENE
ATLAS 5 CENTAUR R/B 2.6 23:47:01 10° NW 23:52:55 60° WSW 23:54:47 43° S
